Find Kosmos-381

NORAD ID: 4783 Int'l Des: 1970-102 Owner: OKB10 Country: SU operational
LEOCIRCULAR

Current View

Loading 3D Globe...

About Kosmos-381

Description loading...

Upcoming Passes

Passes for default location (London). Set your location on the main map for personalized predictions.

Altitude History

Loading altitude history...

Two-Line Element Set

1 4783U 70102A 26150.14691625 .00000038 00000-0 63074-4 0 9995
2 4783 74.0343 41.3610 0029873 64.3478 296.0722 13.75044721783674
Epoch: May 30, 2026 • Age: 13 hours

Current Status

Altitude 968.9 km
Velocity 7.38 km/s
Sub-Earth Point 57.76°N, 61.54°W
Type other

Most Searched